Welcome to the New NWS' Forecast!
Most changes are behind the scenes, but click here for differences you might notice.

Regional Weather Roundup (RWR)

Issued by National Weather Service (NWS)

                            
000
ASUS45 KTFX 230810
RWRMT 
MONTANA REGIONAL WEATHER ROUNDUP
NATIONAL WEATHER SERVICE GREAT FALLS MT
200 AM MDT TUE OCT 23 2018

NOTE: "FAIR" INDICATES FEW OR NO CLOUDS BELOW 12000 FEET WITH NO
SIGNIFICANT WEATHER AND/OR OBSTRUCTIONS TO VISIBILITY.

MTZ001>007-043-230900-
WEST OF THE DIVIDE
  
CITY           SKY/WX    TMP DP  RH WIND       PRES   REMARKS
KALISPELL      FAIR      26  22  84 W3        30.06S                  
MISSOULA       FAIR      35  29  78 CALM      30.06R                  
BUTTE          FAIR      35  25  66 S5        30.12S                  
MULLAN PASS    FAIR      51  25  36 SE8       30.07F                  
ANACONDA         N/A     39  27  60 S8        30.10S                  
DEER LODGE       N/A     37  28  70 SE3       30.11S                  
PLAINS           N/A     31  25  78 CALM      30.05S                  
RONAN            N/A     28  27  93 NE6       30.05S WCI  22          
$$

MTZ008-052>055-230900-
SOUTHWEST MONTANA
  
CITY           SKY/WX    TMP DP  RH WIND       PRES   REMARKS
BOZEMAN        FAIR      33  27  78 W6        30.11F WCI  28          
DILLON         FAIR      35  29  78 S8        30.11R WCI  29          
ENNIS          PTCLDY    32  28  86 CALM      30.16S                  
W YELLOWSTONE  FAIR      25  23  93 CALM      30.17R                  
THREE FORKS      N/A     30  25  82 CALM      30.09S                  
TWIN BRIDGES     N/A     36  25  65 CALM      30.08F                  
$$

MTZ009-010-012-014-046-048-049-054-230900-
EAST SLOPES AND CENTRAL MONTANA
  
CITY           SKY/WX    TMP DP  RH WIND       PRES   REMARKS
CUT BANK       FAIR      29  24  82 NE3       30.06F                  
GREAT FALLS    FAIR      36  31  82 SW5       30.06F                  
HELENA         FAIR      39  31  72 CALM      30.10S                  
CHOTEAU          N/A     37  30  75 S6        30.06S                  
WHITE SULPHUR    N/A     28  25  86 SE7       30.14S WCI  21          
$$

MTZ011-013-016-021-045-047-050-051-230900-
NORTH CENTRAL MONTANA
  
CITY           SKY/WX    TMP DP  RH WIND       PRES   REMARKS
HAVRE          FAIR      33  27  78 CALM      30.08S                  
LEWISTOWN      FAIR      35  25  66 SE8       30.10F WCI  29          
N BAR RANCH    FAIR      41  25  52 VRB3      30.16F                  
CHINOOK          N/A     36  27  69 E10       30.11F WCI  28          
$$

MTZ017>020-022>027-061-062-230900-
NORTHEAST MONTANA
  
CITY           SKY/WX    TMP DP  RH WIND       PRES   REMARKS
GLASGOW        FAIR      36  24  62 E14       30.20S WCI  27          
GLENDIVE       FAIR      34  22  61 NE5       30.26S                  
JORDAN           N/A     32  22  66 E3        30.18S                  
MALTA          CLEAR     36  27  69 NE8       30.16F WCI  29          
SIDNEY           N/A     25  20  81 N6        30.30S WCI  18          
WOLF POINT     FAIR      29  22  75 NE7       30.27S WCI  22          
POPLAR           N/A     28  19  69 N5        30.28S                  
SCOBEY           N/A     31  11  43 NW1       30.22F                  
$$

MTZ028>42-056>058-230900-
SOUTHCENTRAL AND SOUTHEAST MONTANA
  
CITY           SKY/WX    TMP DP  RH WIND       PRES   REMARKS
BAKER          FAIR      30  22  72 E8        30.26F WCI  22          
BILLINGS       FAIR      42  27  55 SW3       30.14S                  
LIVINGSTON     FAIR      31  27  85 NW5       30.15F                  
MILES CITY     FAIR      32  25  75 NE8       30.19F WCI  25          
BIG TIMBER     CLEAR     34  27  75 W6        30.16F WCI  29          
EKALAKA          N/A     40  22  49 CALM      30.17F                  
FORSYTH          N/A     37  27  65 E7        30.17S                  
ROUNDUP          N/A     35  22  59 W5        30.04F                  
$$

REGIONAL REPORTS...DAKOTAS
  
CITY           SKY/WX    TMP DP  RH WIND       PRES   REMARKS
WILLISTON      FAIR      21  15  78 NE3       30.31S                  
MINOT          FAIR      23  16  74 CALM      30.34R                  
DICKINSON      FAIR      29  20  69 SE5       30.28S                  
BEACH          FAIR      28  21  74 SE9       30.28S WCI  20          
CROSBY         FAIR      19  18  93 SE3       30.32S                  
TIOGA          FAIR      18  16  93 CALM      30.33S                  
WATFORD CITY   FAIR      19  18  93 CALM      30.31R                  
BISMARCK       FAIR      24  18  77 CALM      30.36R                  
GRAND FORKS    FAIR      24  19  81 NW8       30.38R WCI  15          
FARGO          FAIR      22  19  89 W5        30.37R                  
BUFFALO SD       N/A     36  22  56 E9        30.24  WCI  29          
RAPID CITY     FAIR      38  26  62 S5        30.29S                  
$$

REGIONAL REPORTS...WYOMING/IDAHO/WASHINGTON
  
CITY           SKY/WX    TMP DP  RH WIND       PRES   REMARKS
GILLETTE       FAIR      43  32  65 S9        30.20F                  
SHERIDAN       FAIR      33  30  88 S5        30.14S                  
BUFFALO WY     FAIR      45  35  68 S13       30.17F                  
CODY           FAIR      38  28  67 CALM      30.18S                  
YELLOWSTONE LA   N/A     27  24  89 NW3       30.25R                  
IDAHO FALLS    FAIR      34  31  88 N6        30.06F WCI  29          
SALMON         FAIR      33  27  78 CALM      30.08R                  
BOISE            N/A    N/A N/A N/A MISG      29.97R                  
SPOKANE        FAIR      48  33  56 NE5       29.96S                  
$$

REGIONAL REPORTS...ALBERTA
  
CITY           SKY/WX    TMP DP  RH WIND       PRES   REMARKS
CALGARY        PTCLDY    30  23  74 CALM      30.00S                  
EDMONTON       CLEAR     43  21  42 S15       29.99F                  
FORT MCMURRAY  CLOUDY    36  23  60 E6        30.01S WCI  31          
HIGH LEVEL     CLEAR     25  21  86 SE2       29.84R                  
LETHBRIDGE     CLEAR     34  27  75 VRB2      30.01F                  
LLOYDMINSTER   CLEAR     28  23  80 SE8       30.11F WCI  20          
MEDICINE HAT   CLEAR     32  25  74 N6        30.05F WCI  26          
ONEFOUR          N/A     34  25  69 E13         N/A  WCI  25          
PEACE RIVER    CLEAR     28  23  80 W3        29.90S                  
PINCHER CREEK  CLEAR     32  25  74 W7        30.02S WCI  26          
RAYMOND          N/A     43  27  52 N2          N/A                   
$$

REGIONAL REPORTS...SASKATCHEWAN
  
CITY           SKY/WX    TMP DP  RH WIND       PRES   REMARKS
CORONACH         N/A     23  18  80 SE6         N/A  WCI  16          
ESTEVAN        CLEAR     21  14  73 SE9       30.32S WCI  11          
PRINCE ALBERT  CLEAR     19  16  86 NE7       30.29F WCI  10          
REGINA         CLEAR     21  14  73 SE8       30.29S WCI  12          
SASKATOON      CLEAR     30  19  64 SE7       30.26F WCI  23          
SWIFT CURRENT  CLEAR     32  21  64 SE16      30.16S WCI  21          
VAL MARIE        N/A     32  21  64 S2          N/A                   
$$